Left ArrowRight Arrow

39.12711, -84.51439

Hourly Observations for June 24, 2024

Temp ( °F °C ) Dew Point ( °F °C ) Humidity (%) Winds ( mph kmh ) Pressure ( in mb ) Visibility ( mi km ) Precip ( " mm )
12:53 am 00:53 Clear 77 25 65 18.3 66 66 NW 6 9 29.83 1010 10 16 0.00 0.00
1:53 am 01:53 Mostly Cloudy 76 24.4 66 18.9 71 71 N 13 20 29.85 1011 10 16 0.00 0.00
2:53 am 02:53 Mostly Cloudy 75 23.9 64 17.8 69 69 NNW 9 15 29.85 1011 10 16 0.00 0.00
3:53 am 03:53 Clear 71 21.7 62 16.7 73 73 NW 8 13 29.87 1012 10 16 0.00 0.00
4:53 am 04:53 Clear 69 20.6 60 15.6 73 73 N 6 9 29.89 1012 10 16 0.00 0.00
5:53 am 05:53 Clear 67 19.4 59 15 76 76 VRB 3 6 29.91 1013 10 16 0.00 0.00
6:53 am 06:53 Sunny 65 18.3 60 15.6 84 84 Calm 29.92 1013 10 16 0.00 0.00
7:53 am 07:53 Sunny 70 21.1 60 15.6 71 71 NNW 6 9 29.94 1014 10 16 0.00 0.00
8:53 am 08:53 Sunny 73 22.8 62 16.7 68 68 N 8 13 29.96 1015 10 16 0.00 0.00
9:53 am 09:53 Sunny 76 24.4 60 15.6 58 58 NNE 9 15 29.97 1015 10 16 0.00 0.00
10:53 am 10:53 Sunny 78 25.6 61 16.1 56 56 N 9 15 29.98 1015 10 16 0.00 0.00
11:53 am 11:53 Mostly Sunny 82 27.8 60 15.6 47 47 NNW 10 17 29.97 1015 10 16 0.00 0.00
12:53 pm 12:53 Partly Cloudy 84 28.9 60 15.6 45 45 NNW 9 15 29.97 1015 10 16 0.00 0.00
1:53 pm 13:53 Mostly Cloudy 84 28.9 60 15.6 45 45 NNE 10 17 29.97 1015 10 16 0.00 0.00
2:53 pm 14:53 Partly Cloudy 85 29.4 60 15.6 43 43 E 6 9 29.96 1015 10 16 0.00 0.00
3:53 pm 15:53 Mostly Sunny 87 30.6 58 14.4 37 37 NNE 6 9 29.95 1014 10 16 0.00 0.00
4:53 pm 16:53 Partly Cloudy 88 31.1 59 15 38 38 Calm 29.94 1014 10 16 0.00 0.00
5:53 pm 17:53 Cloudy 82 27.8 61 16.1 49 49 ESE 5 7 29.94 1014 10 16 0.00 0.00
6:53 pm 18:53 Partly Cloudy 85 29.4 61 16.1 45 45 E 6 9 29.93 1014 10 16 0.00 0.00
7:53 pm 19:53 Mostly Cloudy 85 29.4 61 16.1 45 45 Calm 29.93 1014 10 16 0.00 0.00
8:53 pm 20:53 Mostly Sunny 77 25 64 17.8 64 64 SSE 3 6 29.93 1014 10 16 0.00 0.00
9:53 pm 21:53 Mostly Clear 75 23.9 66 18.9 74 74 Calm 29.94 1014 10 16 0.00 0.00
10:53 pm 22:53 Clear 70 21.1 63 17.2 78 78 Calm 29.95 1014 10 16 0.00 0.00
11:53 pm 23:53 Clear 68 20 63 17.2 84 84 Calm 29.95 1014 10 16 0.00 0.00

Powered by Vaisala Xweather